Volver al catálogo

STARLINK-33819

ActivoComunicacionesVLEO
NORAD 63494·PAYLOAD·🇺🇸 United States

Lanzado Apr 7, 2025 desde Vandenberg Space Force Base

Loading…

Próximos Pases (próximas 24 horas)

TLE

ActualizadoSource: CelesTrak SupGP

Época: Sep 15, 2026, 03:50 UTC

1 63494C 25071B   26258.16020833  .00051807  00000+0  15330-2 0  2589
2 63494  53.1597 334.9758 0001305 101.9958  33.2195 15.34316825    11

Sigue STARLINK-33819 en tiempo real con AllMySat

Download on the App Store